Location: Bittkow
(50.3000°N, 19.0000°E)
Time: 12:24:36
(UTC+00:00)

Cosmos 858 Rocket - Pass Details

Date: 19 September 2020
Orbit: 756 x 774 km, 74.1° (Epoch: 23 October)

Event Time Altitude Azimuth Distance (km) Brightness Sun altitude
Rises 03:19:32 0° 335° (NNW) 3,226 7.6 -11.3°
Reaches altitude 10° 03:21:54 10° 335° (NNW) 2,296 6.9 -10.9°
Maximum altitude 03:27:07 83° 247° (WSW) 769 4.4 -10.1°
Drops below altitude 10° 03:32:18 10° 161° (SSE) 2,283 7.0 -9.3°
Sets 03:34:39 0° 161° (SSE) 3,205 7.8 -9.0°
